Location: Castelbiague
(43.0361°N, 0.9246°E)
Time: 19:13:22
(UTC+00:00)

Meteor 1-4 Rocket - Pass Details

Date: 21 October 2021
Orbit: 447 x 496 km, 81.2° (Epoch: 04 December)

Event Time Altitude Azimuth Distance (km) Brightness Sun altitude
Rises 04:36:45 0° 12° (NNE) 2,463 6.3 -19.0°
Reaches altitude 10° 04:40:07 10° 48° (NE) 1,590 5.9 -18.4°
Maximum altitude 04:41:19 11° 68° (ENE) 1,505 6.1 -18.2°
Drops below altitude 10° 04:42:31 10° 88° (E) 1,592 6.5 -18.0°
Sets 04:45:53 0° 124° (SE) 2,470 7.1 -17.4°
